Weather History for Tehachapi, CA

Change the Weather History Date:

Friday, February 15, 2013

  Actual Average Record
Temperature  
Mean Temperature 48 °F -  
Max Temperature 62 °F 55 °F 62 °F (2013)
Min Temperature 33 °F 32 °F 32 °F (2012)
Degree Days  
Heating Degree Days 18    
Moisture  
Dew Point 15 °F    
Average Humidity 25    
Maximum Humidity 60    
Minimum Humidity 14    
Precipitation  
Precipitation 0.00 in - - ()
Sea Level Pressure  
Sea Level Pressure 30.32 in    
Wind  
Wind Speed 14 mph (ESE)    
Max Wind Speed 22 mph    
Max Gust Speed 31 mph    
Visibility 10 miles    
Events      
Averages and records for this station are not official NWS values.
T = Trace of Precipitation, MM = Missing Value Source: NWS Daily Summary

Daily Weather History Graph

Daily Weather History Graph

Search for Another Location

Airport:

Trip Planner

Search our weather history database for the weather conditions in past years. The results will help you decide how hot, cold, wet, or windy it might be!

Date:

Astronomy

Feb. 15, 2013 Rise Set
Actual Time 6:39 AM PST 5:36 PM PST
Civil Twilight 6:13 AM PST 6:02 PM PST
Nautical Twilight 5:43 AM PST 6:32 PM PST
Astronomical Twilight 5:14 AM PST 7:01 PM PST
Moon 9:33 AM PST (2/15) 11:26 PM PST (2/15)
Length of Visible Light 11h 49m
Length of Day
10h 57m
Waxing Crescent, 31% of the Moon is Illuminated
Feb 15
Waxing Crescent
Feb 17
First Quarter
Feb 25
Full
Mar 4
Last Quarter
Mar 11
New

Hourly Weather History & Observations

Time (PST) Temp. Windchill Dew Point Humidity Pressure Visibility Wind Dir Wind Speed Gust Speed Precip Events Conditions
12:15 AM - - - N/A% - - North - - N/A   Unknown
12:35 AM - - - N/A% - - North - - N/A   Unknown
12:55 AM - - - N/A% - - North - - N/A   Unknown
1:15 AM - - - N/A% - - North - - N/A   Unknown
1:35 AM 33.8 °F 26.4 °F 21.2 °F 60% 30.30 in 10.0 mi SE 9.2 mph - N/A   Unknown
1:55 AM - - - N/A% - - North - - N/A   Unknown
2:15 AM - - - N/A% - - North - - N/A   Unknown
2:35 AM - - - N/A% - - North - - N/A   Unknown
2:55 AM - - - N/A% - - North - - N/A   Unknown
3:15 AM - - - N/A% - - North - - N/A   Unknown
3:35 AM - - - N/A% - 10.0 mi North - - N/A   Unknown
3:55 AM - - - N/A% - - North - - N/A   Unknown
4:15 AM - - - N/A% - - North - - N/A   Unknown
4:35 AM - - - N/A% 30.28 in - ESE 10.4 mph - N/A   Unknown
4:55 AM - - - N/A% - - North - - N/A   Unknown
5:15 AM 39.2 °F 33.6 °F 21.2 °F 49% 30.29 in 10.0 mi ESE 8.1 mph - N/A   Unknown
5:35 AM - - - N/A% - - North - - N/A   Unknown
5:55 AM 39.2 °F 33.0 °F 23.0 °F 52% 30.29 in 10.0 mi SE 9.2 mph - N/A   Unknown
6:15 AM - - - N/A% - 10.0 mi North - - N/A   Unknown
6:35 AM - - - N/A% - - North - - N/A   Unknown
6:55 AM - - - N/A% - 10.0 mi North - - N/A   Unknown
7:15 AM - - - N/A% - - North - - N/A   Unknown
7:35 AM - - - N/A% - 10.0 mi North - - N/A   Unknown
7:55 AM - - - N/A% 30.31 in - ESE 20.7 mph 27.6 mph N/A   Unknown
8:15 AM - - - N/A% - - North - - N/A   Unknown
8:35 AM 51.8 °F - 21.2 °F 30% 30.33 in 10.0 mi SE 20.7 mph 27.6 mph N/A   Unknown
8:55 AM - - - N/A% - - North - - N/A   Unknown
9:15 AM - - - N/A% - - North - - N/A   Unknown
9:55 AM 55.4 °F - 21.2 °F 26% 30.33 in - SE 19.6 mph - N/A   Unknown
10:15 AM 57.2 °F - 19.4 °F 23% 30.33 in 10.0 mi SE 16.1 mph 25.3 mph N/A   Clear
10:35 AM - - - N/A% - 10.0 mi North - - N/A   Unknown
11:15 AM - - - N/A% - - North - - N/A   Unknown
11:35 AM - - - N/A% - - North - - N/A   Unknown
11:55 AM - - - N/A% 30.32 in 10.0 mi North - - N/A   Unknown
12:15 PM - - - N/A% 30.32 in - SE 20.7 mph - N/A   Unknown
12:35 PM 60.8 °F - 17.6 °F 19% 30.32 in 9.0 mi ESE 19.6 mph 28.8 mph N/A   Unknown
12:55 PM 62.6 °F - 17.6 °F 18% 30.31 in 10.0 mi ESE 17.3 mph 25.3 mph N/A   Clear
1:15 PM 62.6 °F - 17.6 °F 18% 30.30 in 10.0 mi ESE 20.7 mph 28.8 mph N/A   Clear
1:35 PM 62.6 °F - 17.6 °F 18% 30.31 in 10.0 mi ESE 16.1 mph 25.3 mph N/A   Clear
1:55 PM 62.6 °F - 17.6 °F 18% 30.30 in 10.0 mi ESE 21.9 mph 31.1 mph N/A   Clear
2:15 PM 62.6 °F - 15.8 °F 16% 30.30 in 10.0 mi East 17.3 mph 29.9 mph N/A   Clear
2:35 PM 62.6 °F - 15.8 °F 16% 30.30 in 10.0 mi ESE 18.4 mph 28.8 mph N/A   Clear
2:55 PM 62.6 °F - 14.0 °F 15% 30.30 in 10.0 mi SE 20.7 mph 28.8 mph N/A   Clear
3:15 PM 62.6 °F - 14.0 °F 15% 30.30 in 10.0 mi ESE 19.6 mph 27.6 mph N/A   Clear
3:35 PM 62.6 °F - 12.2 °F 14% 30.30 in 10.0 mi ESE 17.3 mph 26.5 mph N/A   Clear
3:55 PM 62.6 °F - 14.0 °F 15% 30.30 in 10.0 mi ESE 17.3 mph 26.5 mph N/A   Clear
4:15 PM 60.8 °F - 12.2 °F 15% 30.30 in 10.0 mi ESE 15.0 mph 23.0 mph N/A   Clear
4:35 PM 60.8 °F - 10.4 °F 14% 30.30 in 10.0 mi ESE 16.1 mph 20.7 mph N/A   Clear
4:55 PM 59.0 °F - 10.4 °F 15% 30.31 in 10.0 mi ESE 10.4 mph - N/A   Clear
5:15 PM 57.2 °F - 10.4 °F 16% 30.31 in 10.0 mi ESE 9.2 mph 17.3 mph N/A   Clear
5:35 PM 55.4 °F - 10.4 °F 17% 30.32 in 10.0 mi ESE 9.2 mph - N/A   Clear
5:55 PM 50.0 °F - 12.2 °F 22% 30.32 in 10.0 mi ESE 6.9 mph - N/A   Clear
6:15 PM 46.4 °F 41.9 °F 14.0 °F 27% 30.32 in 10.0 mi SSE 9.2 mph - N/A   Clear
6:35 PM 48.2 °F - 12.2 °F 24% 30.32 in 10.0 mi East 6.9 mph - N/A   Clear
6:55 PM 46.4 °F 41.5 °F 14.0 °F 27% 30.33 in 10.0 mi SE 10.4 mph - N/A   Clear
7:15 PM 44.6 °F 38.8 °F 14.0 °F 29% 30.34 in 10.0 mi SE 11.5 mph - N/A   Clear
7:35 PM 46.4 °F 41.1 °F 12.2 °F 25% 30.34 in 10.0 mi ESE 11.5 mph - N/A   Clear
7:55 PM 46.4 °F 41.5 °F 12.2 °F 25% 30.34 in 10.0 mi SSE 10.4 mph - N/A   Clear
8:15 PM 48.2 °F - 12.2 °F 24% 30.34 in 10.0 mi SE 10.4 mph - N/A   Clear
8:35 PM 44.6 °F 38.4 °F 14.0 °F 29% 30.35 in 10.0 mi SE 12.7 mph - N/A   Clear
8:55 PM 46.4 °F 40.4 °F 14.0 °F 27% 30.35 in 10.0 mi SE 13.8 mph - N/A   Clear
9:15 PM 44.6 °F 38.4 °F 14.0 °F 29% 30.36 in 10.0 mi ESE 12.7 mph - N/A   Clear
9:35 PM 44.6 °F 38.4 °F 14.0 °F 29% 30.36 in 10.0 mi ESE 12.7 mph - N/A   Clear
9:55 PM 50.0 °F - 12.2 °F 22% 30.35 in 10.0 mi East 12.7 mph - N/A   Clear
10:15 PM 48.2 °F - 14.0 °F 25% 30.35 in 10.0 mi SE 11.5 mph - N/A   Clear
10:35 PM 42.8 °F 36.6 °F 14.0 °F 31% 30.35 in 10.0 mi ESE 11.5 mph - N/A   Clear
10:55 PM 41.0 °F 34.3 °F 14.0 °F 33% 30.35 in 10.0 mi SE 11.5 mph - N/A   Clear
11:15 PM 39.2 °F 32.5 °F 14.0 °F 36% 30.35 in 10.0 mi ESE 10.4 mph - N/A   Clear
11:35 PM 41.0 °F 35.2 °F 14.0 °F 33% 30.35 in 10.0 mi East 9.2 mph - N/A   Clear
11:55 PM 42.8 °F 36.6 °F 14.0 °F 31% 30.35 in 10.0 mi East 11.5 mph - N/A   Clear